Weather History for Chicago Lansing, IL

Change the Weather History Date:

Monday, December 26, 2011

  Actual Average (KMDW) Record (KMDW)
Temperature  
Mean Temperature 32 °F 26 °F  
Max Temperature 44 °F 33 °F 55 °F (1971)
Min Temperature 21 °F 20 °F -9 °F (1933)
Degree Days  
Heating Degree Days 32 39  
Month to date heating degree days 920  
Since 1 July heating degree days 2055  
Cooling Degree Days 0 0  
Month to date cooling degree days 0  
Year to date cooling degree days 1045  
Moisture  
Dew Point 28 °F    
Average Humidity 83    
Maximum Humidity 100    
Minimum Humidity 59    
Precipitation  
Precipitation 0.00 in 0.07 in 0.80 in (1988)
Month to date precipitation 2.20  
Year to date precipitation 38.72  
Sea Level Pressure  
Sea Level Pressure 30.21 in    
Wind  
Wind Speed 5 mph (SSW)    
Max Wind Speed 18 mph    
Max Gust Speed 26 mph    
Visibility 10 miles    
Events      
T = Trace of Precipitation, MM = Missing Value Source: NWS Daily Summary

Daily Weather History Graph

Daily Weather History Graph

Search for Another Location

Airport:

Trip Planner

Search our weather history database for the weather conditions in past years. The results will help you decide how hot, cold, wet, or windy it might be!

Date:

Astronomy

Dec. 26, 2011 Rise Set
Actual Time 7:15 AM CST 4:26 PM CST
Civil Twilight 6:43 AM CST 4:57 PM CST
Nautical Twilight 6:08 AM CST 5:32 PM CST
Astronomical Twilight 5:35 AM CST 6:06 PM CST
Moon 8:33 AM CST (12/26) 6:55 PM CST (12/26)
Length of Visible Light 10h 13m
Length of Day
9h 10m
Waxing Crescent, 5% of the Moon is Illuminated
Dec 26
Waxing Crescent
Jan 1
First Quarter
Jan 9
Full
Jan 16
Last Quarter
Jan 23
New

Hourly Weather History & Observations

Time (CST) Temp. Windchill Dew Point Humidity Pressure Visibility Wind Dir Wind Speed Gust Speed Precip Events Conditions
12:15 AM 27.0 °F 23.0 °F 24.8 °F 92% 30.31 in 10.0 mi West 3.5 mph - N/A   Clear
12:35 AM 26.1 °F - 23.7 °F 91% 30.30 in 10.0 mi Calm Calm - N/A   Clear
12:55 AM 27.7 °F 23.8 °F 25.3 °F 91% 30.31 in 10.0 mi West 3.5 mph - N/A   Clear
1:15 AM 25.3 °F - 23.4 °F 92% 30.31 in 10.0 mi Calm Calm - N/A   Clear
1:35 AM 24.1 °F - 22.5 °F 94% 30.32 in 10.0 mi Calm Calm - N/A   Clear
1:55 AM 25.5 °F - 23.7 °F 93% 30.32 in 10.0 mi Calm Calm - N/A   Clear
2:15 AM 25.3 °F - 23.9 °F 94% 30.33 in 10.0 mi Calm Calm - N/A   Clear
2:35 AM 23.0 °F - 23.0 °F 100% 30.33 in 10.0 mi Calm Calm - N/A   Clear
2:55 AM 24.1 °F - 23.0 °F 96% 30.33 in 10.0 mi Calm Calm - N/A   Clear
3:15 AM 23.2 °F - 22.3 °F 96% 30.32 in 10.0 mi Calm Calm - N/A   Clear
3:35 AM 24.3 °F - 23.7 °F 98% 30.32 in 10.0 mi Calm Calm - N/A   Clear
3:55 AM 23.9 °F - 23.7 °F 99% 30.31 in 10.0 mi Calm Calm - N/A   Clear
4:15 AM 23.9 °F - 23.2 °F 97% 30.31 in 10.0 mi Calm Calm - N/A   Clear
4:35 AM 22.5 °F 16.3 °F 21.2 °F 95% 30.31 in 10.0 mi South 4.6 mph - N/A   Clear
4:55 AM 21.4 °F 16.6 °F 20.3 °F 96% 30.30 in 10.0 mi South 3.5 mph - N/A   Clear
5:15 AM 23.2 °F 17.2 °F 22.1 °F 96% 30.29 in 10.0 mi South 4.6 mph - N/A   Clear
5:35 AM 23.9 °F - 22.8 °F 96% 30.29 in 10.0 mi Calm Calm - N/A   Clear
5:55 AM 24.4 °F - 23.7 °F 97% 30.29 in 10.0 mi Calm Calm - N/A   Clear
6:15 AM 24.6 °F - 23.9 °F 97% 30.29 in 10.0 mi Calm Calm - N/A   Clear
6:35 AM 24.8 °F 20.5 °F 23.9 °F 96% 30.29 in 10.0 mi South 3.5 mph - N/A   Clear
6:55 AM 23.9 °F 19.5 °F 23.0 °F 96% 30.29 in 10.0 mi SSE 3.5 mph - N/A   Clear
7:15 AM 23.0 °F 18.4 °F 22.1 °F 96% 30.28 in 10.0 mi SSE 3.5 mph - N/A   Clear
7:35 AM 23.5 °F 19.1 °F 22.5 °F 96% 30.27 in 10.0 mi South 3.5 mph - N/A   Clear
7:55 AM 24.3 °F 17.3 °F 23.4 °F 96% 30.27 in 10.0 mi South 5.8 mph - N/A   Clear
8:15 AM 27.3 °F 19.9 °F 26.1 °F 95% 30.26 in 10.0 mi South 6.9 mph - N/A   Clear
8:35 AM 29.7 °F 22.0 °F 27.5 °F 92% 30.26 in 10.0 mi South 8.1 mph - N/A   Clear
8:55 AM 32.0 °F 22.5 °F 28.9 °F 88% 30.25 in 10.0 mi South 12.7 mph - N/A   Clear
9:15 AM 33.1 °F 23.9 °F 29.7 °F 87% 30.25 in 10.0 mi South 12.7 mph - N/A   Clear
9:35 AM 34.7 °F 25.9 °F 30.4 °F 84% 30.24 in 10.0 mi South 12.7 mph - N/A   Clear
9:55 AM 36.9 °F 29.6 °F 31.3 °F 80% 30.23 in 10.0 mi South 10.4 mph - N/A   Clear
10:15 AM 37.8 °F 29.0 °F 30.4 °F 75% 30.22 in 10.0 mi South 15.0 mph - N/A   Clear
10:35 AM 39.2 °F 32.0 °F 30.7 °F 72% 30.21 in 10.0 mi SSW 11.5 mph - N/A   Clear
10:55 AM 39.9 °F 31.4 °F 30.7 °F 70% 30.19 in 10.0 mi SSW 16.1 mph 23.0 mph N/A   Clear
11:15 AM 41.0 °F 33.5 °F 31.1 °F 68% 30.18 in 10.0 mi SSW 13.8 mph - N/A   Clear
11:35 AM 41.7 °F 33.4 °F 30.9 °F 66% 30.17 in 10.0 mi SSW 17.3 mph 23.0 mph N/A   Clear
11:55 AM 42.8 °F 35.4 °F 31.5 °F 64% 30.16 in 10.0 mi South 15.0 mph - N/A   Clear
12:15 PM 43.0 °F 35.1 °F 31.6 °F 64% 30.15 in 10.0 mi SW 17.3 mph - N/A   Clear
12:35 PM 43.7 °F 35.7 °F 31.6 °F 63% 30.14 in 10.0 mi SW 18.4 mph - N/A   Clear
12:55 PM 44.4 °F 36.9 °F 31.8 °F 61% 30.12 in 10.0 mi SW 17.3 mph 20.7 mph N/A   Clear
1:15 PM 44.2 °F 37.6 °F 30.6 °F 59% 30.11 in 10.0 mi SW 13.8 mph 19.6 mph N/A   Clear
1:35 PM 43.7 °F 35.7 °F 30.2 °F 59% 30.11 in 10.0 mi SW 18.4 mph 23.0 mph N/A   Clear
1:55 PM 43.0 °F 35.7 °F 30.7 °F 62% 30.11 in 10.0 mi SW 15.0 mph 26.5 mph N/A   Clear
2:15 PM 42.6 °F 35.2 °F 31.6 °F 65% 30.09 in 10.0 mi SW 15.0 mph - N/A   Clear
2:35 PM 42.3 °F 34.4 °F 31.6 °F 66% 30.09 in 10.0 mi SW 16.1 mph 23.0 mph N/A   Clear
2:55 PM 41.4 °F 34.7 °F 32.0 °F 69% 30.08 in 10.0 mi SW 11.5 mph - N/A   Clear
3:15 PM 41.2 °F 35.5 °F 31.8 °F 69% 30.08 in 10.0 mi SW 9.2 mph - N/A   Clear
3:35 PM 40.8 °F 33.7 °F 32.0 °F 71% 30.08 in 10.0 mi SW 12.7 mph 16.1 mph N/A   Clear
3:55 PM 40.1 °F 32.7 °F 32.0 °F 73% 30.06 in 10.0 mi SSW 12.7 mph 16.1 mph N/A   Clear
4:15 PM 39.7 °F 33.2 °F 32.0 °F 74% 30.06 in 10.0 mi SSW 10.4 mph - N/A   Clear
4:35 PM 39.2 °F 32.5 °F 32.0 °F 75% 30.06 in 10.0 mi SSW 10.4 mph - N/A   Clear
4:55 PM 38.7 °F 31.8 °F 32.0 °F 77% 30.06 in 10.0 mi SSW 10.4 mph - N/A   Clear
5:15 PM 38.5 °F 32.1 °F 32.0 °F 78% 30.08 in 10.0 mi SSW 9.2 mph - N/A   Clear
5:35 PM 37.9 °F 30.9 °F 32.0 °F 79% 30.07 in 10.0 mi SSW 10.4 mph - N/A   Clear
5:55 PM 37.6 °F 31.0 °F 32.0 °F 80% 30.04 in 10.0 mi South 9.2 mph - N/A   Clear
6:15 PM 37.4 °F 31.4 °F 32.0 °F 81% 30.04 in 10.0 mi SSW 8.1 mph - N/A   Clear
6:35 PM 36.5 °F 31.0 °F 31.8 °F 83% 30.04 in 10.0 mi SSW 6.9 mph - N/A   Clear
6:55 PM 35.8 °F 28.8 °F 31.6 °F 85% 30.03 in 10.0 mi SSW 9.2 mph - N/A   Clear
7:15 PM 35.8 °F 29.4 °F 31.8 °F 86% 30.03 in 10.0 mi SSW 8.1 mph - N/A   Scattered Clouds
7:35 PM 35.6 °F 28.6 °F 31.6 °F 85% 30.02 in 10.0 mi SSW 9.2 mph - N/A   Scattered Clouds
7:55 PM 35.6 °F 28.0 °F 31.8 °F 86% 30.01 in 10.0 mi SSW 10.4 mph - N/A   Scattered Clouds
8:15 PM 35.6 °F 28.6 °F 32.0 °F 87% 29.99 in 10.0 mi SSW 9.2 mph - N/A   Mostly Cloudy
8:35 PM 35.6 °F 29.9 °F 32.0 °F 87% 29.97 in 10.0 mi South 6.9 mph - N/A   Overcast
8:55 PM 36.5 °F 28.2 °F 31.8 °F 83% 29.97 in 10.0 mi SSW 12.7 mph - N/A   Overcast
9:15 PM 36.5 °F 28.7 °F 31.8 °F 83% 29.97 in 10.0 mi SW 11.5 mph - N/A   Overcast
9:35 PM 36.7 °F 28.0 °F 31.5 °F 81% 29.96 in 10.0 mi SSW 13.8 mph - N/A   Overcast
9:55 PM 37.4 °F 28.9 °F 32.0 °F 81% 29.95 in 10.0 mi SW 13.8 mph - N/A   Overcast
10:15 PM 36.7 °F 28.4 °F 31.1 °F 80% 29.94 in 10.0 mi SW 12.7 mph - N/A   Overcast
10:35 PM 35.6 °F 27.5 °F 32.0 °F 87% 29.93 in 4.0 mi SW 11.5 mph - N/A Rain Rain
10:55 PM 35.1 °F 27.4 °F 32.9 °F 92% 29.91 in 10.0 mi SW 10.4 mph - 0.01 in Rain Light Rain
11:15 PM 34.7 °F 27.5 °F 33.3 °F 94% 29.89 in 5.0 mi SW 9.2 mph - N/A Rain Rain
11:35 PM 34.7 °F 28.1 °F 33.4 °F 95% 29.88 in 7.0 mi SSW 8.1 mph - N/A Rain Rain
11:55 PM 34.3 °F 27.0 °F 33.4 °F 97% 29.87 in 7.0 mi SSW 9.2 mph - N/A Rain Light Rain